Weather History for Berlin, NH

Change the Weather History Date:

Monday, July 8, 2013

  Actual Average Record
Temperature  
Mean Temperature 70 °F -  
Max Temperature 78 °F 74 °F 90 °F (2008)
Min Temperature 64 °F 47 °F 39 °F (2000)
Cooling Degree Days 4    
Growing Degree Days 20 (Base 50)    
Moisture  
Dew Point 66 °F    
Average Humidity 91    
Maximum Humidity 100    
Minimum Humidity 76    
Precipitation  
Precipitation 0.46 in - - ()
Sea Level Pressure  
Sea Level Pressure 30.02 in    
Wind  
Wind Speed 1 mph (SE)    
Max Wind Speed 9 mph    
Max Gust Speed -    
Visibility 8 miles    
Events Rain    
Averages and records for this station are not official NWS values.
T = Trace of Precipitation, MM = Missing Value Source: NWS Daily Summary

Daily Weather History Graph

Daily Weather History Graph

Search for Another Location

Airport:

Trip Planner

Search our weather history database for the weather conditions in past years. The results will help you decide how hot, cold, wet, or windy it might be!

Date:

Astronomy

Jul. 08, 2013 Rise Set
Actual Time 5:08 AM EDT 8:31 PM EDT
Civil Twilight 4:32 AM EDT 9:07 PM EDT
Nautical Twilight 3:44 AM EDT 9:54 PM EDT
Astronomical Twilight 2:44 AM EDT 10:53 PM EDT
Moon 5:38 AM EDT (7/8) 8:26 PM EDT (7/8)
Length of Visible Light 16h 35m
Length of Day
15h 22m
New Moon, 0% of the Moon is Illuminated
Jul 8
New Moon
Jul 15
First Quarter
Jul 22
Full
Jul 29
Last Quarter
Aug 6
New

Hourly Weather History & Observations

Time (EDT) Temp. Dew Point Humidity Pressure Visibility Wind Dir Wind Speed Gust Speed Precip Events Conditions
12:52 AM 66.0 °F 64.9 °F 96% 29.97 in 7.0 mi Calm Calm - 0.00 in   Mostly Cloudy
1:52 AM 66.9 °F 66.0 °F 97% 29.97 in 6.0 mi Calm Calm - 0.00 in   Mostly Cloudy
2:52 AM 66.9 °F 64.9 °F 93% 29.96 in 6.0 mi Calm Calm - 0.00 in Rain Light Rain
3:52 AM 66.9 °F 64.9 °F 93% 29.97 in 3.0 mi Calm Calm - 0.03 in Rain Light Rain
4:02 AM 66.2 °F 66.2 °F 100% 29.99 in 2.5 mi Calm Calm - 0.03 in Rain Rain
4:12 AM 66.2 °F 64.4 °F 94% 29.98 in 1.5 mi ESE 3.5 mph - 0.11 in Rain Heavy Rain
4:33 AM 66.2 °F 66.2 °F 100% 29.98 in 3.0 mi Calm Calm - 0.27 in Rain Rain
4:47 AM 66.2 °F 66.2 °F 100% 29.99 in 4.0 mi Calm Calm - 0.28 in Rain Light Rain
4:52 AM 66.9 °F 66.0 °F 97% 29.98 in 3.0 mi Calm Calm - 0.29 in Rain Light Rain
5:25 AM 66.2 °F 66.2 °F 100% 29.99 in 2.0 mi Calm Calm - 0.06 in Rain Rain
5:34 AM 66.2 °F 66.2 °F 100% 29.99 in 1.5 mi Calm Calm - 0.08 in Rain Rain
5:47 AM 66.2 °F 66.2 °F 100% 29.99 in 2.0 mi Calm Calm - 0.10 in Rain Light Rain
5:52 AM 66.0 °F 66.0 °F 100% 29.98 in 2.0 mi Calm Calm - 0.10 in Rain Rain
6:21 AM 66.2 °F 66.2 °F 100% 30.00 in 2.5 mi Calm Calm - 0.02 in Rain Light Rain
6:44 AM 66.2 °F 66.2 °F 100% 29.99 in 3.0 mi Calm Calm - 0.03 in Rain Light Rain
6:52 AM 68.0 °F 66.0 °F 93% 29.98 in 4.0 mi Calm Calm - 0.03 in Rain Light Rain
7:52 AM 69.1 °F 66.9 °F 93% 29.99 in 7.0 mi Calm Calm - 0.01 in Rain Light Rain
8:29 AM 69.8 °F 66.2 °F 88% 30.01 in 9.0 mi Calm Calm - 0.00 in   Mostly Cloudy
8:50 AM 71.6 °F 66.2 °F 83% 30.01 in 9.0 mi Calm Calm - 0.00 in   Mostly Cloudy
8:52 AM 71.1 °F 68.0 °F 90% 30.00 in 9.0 mi Calm Calm - 0.00 in   Mostly Cloudy
9:14 AM 71.6 °F 68.0 °F 88% 30.01 in 8.0 mi Calm Calm - 0.00 in Rain Light Rain
9:52 AM 72.0 °F 68.0 °F 87% 30.00 in 10.0 mi Calm Calm - 0.00 in   Overcast
10:16 AM 71.6 °F 68.0 °F 88% 30.01 in 10.0 mi WNW 3.5 mph - N/A   Overcast
10:41 AM 73.4 °F 66.2 °F 78% 30.01 in 10.0 mi Calm Calm - N/A   Overcast
10:52 AM 73.9 °F 66.9 °F 79% 30.01 in 10.0 mi Calm Calm - N/A   Overcast
11:21 AM 73.4 °F 68.0 °F 83% 30.02 in 10.0 mi Calm Calm - N/A   Overcast
11:25 AM 73.4 °F 68.0 °F 83% 30.02 in 10.0 mi Calm Calm - N/A   Overcast
11:52 AM 73.9 °F 66.9 °F 79% 30.01 in 10.0 mi Calm Calm - N/A   Overcast
12:52 PM 75.0 °F 68.0 °F 79% 30.01 in 10.0 mi Calm Calm - N/A   Overcast
1:52 PM 75.0 °F 68.0 °F 79% 30.01 in 10.0 mi North 9.2 mph - N/A   Overcast
2:01 PM 73.4 °F 68.0 °F 83% 30.02 in 9.0 mi North 8.1 mph - 0.00 in Rain Light Rain
2:52 PM 73.9 °F 68.0 °F 82% 30.01 in 10.0 mi Calm Calm - 0.00 in   Overcast
3:52 PM 75.0 °F 66.9 °F 76% 30.02 in 10.0 mi Calm Calm - N/A   Overcast
4:11 PM 73.4 °F 69.8 °F 88% 30.03 in 10.0 mi SE 6.9 mph - N/A   Overcast
4:52 PM 73.9 °F 68.0 °F 82% 30.02 in 10.0 mi SSE 3.5 mph - N/A   Overcast
5:52 PM 73.9 °F 66.9 °F 79% 30.01 in 10.0 mi South 5.8 mph - N/A   Partly Cloudy
6:52 PM 73.0 °F 66.0 °F 79% 30.02 in 10.0 mi South 4.6 mph - N/A   Partly Cloudy
7:52 PM 70.0 °F 66.0 °F 87% 30.03 in 10.0 mi SSE 4.6 mph - N/A   Clear
8:49 PM 68.0 °F 64.4 °F 88% 30.07 in 10.0 mi Calm Calm - N/A   Mostly Cloudy
8:52 PM 68.0 °F 64.9 °F 90% 30.06 in 10.0 mi Calm Calm - N/A   Mostly Cloudy
9:06 PM 66.2 °F 64.4 °F 94% 30.07 in 10.0 mi Calm Calm - N/A   Scattered Clouds
9:52 PM 64.9 °F 64.0 °F 97% 30.08 in 10.0 mi Calm Calm - N/A   Mostly Cloudy
10:30 PM 64.4 °F 62.6 °F 94% 30.09 in 10.0 mi Calm Calm - N/A   Scattered Clouds
10:52 PM 64.0 °F 63.0 °F 96% 30.09 in 10.0 mi Calm Calm - N/A   Mostly Cloudy
11:04 PM 64.4 °F 62.6 °F 94% 30.09 in 10.0 mi Calm Calm - N/A   Overcast
11:19 PM 64.4 °F 64.4 °F 100% 30.09 in 10.0 mi Calm Calm - N/A   Overcast
11:39 PM 64.4 °F 64.4 °F 100% 30.09 in 10.0 mi Calm Calm - N/A   Overcast
11:52 PM 64.9 °F 64.0 °F 97% 30.08 in 10.0 mi Calm Calm - N/A   Overcast